Location: Focicchia
(42.2496°N, 9.2935°E)
Time: 19:00:57
(UTC+00:00)

Cosmos 1727 Rocket - Pass Details

Date: 07 June 2020
Orbit: 960 x 997 km, 82.9° (Epoch: 06 July)

Event Time Altitude Azimuth Distance (km) Brightness Sun altitude
Rises 02:42:08 0° 352° (N) 3,656 7.6 -10.2°
Reaches altitude 10° 02:44:38 10° 353° (N) 2,704 6.9 -9.9°
Maximum altitude 02:50:50 89° 85° (E) 967 4.0 -9.0°
Drops below altitude 10° 02:57:00 10° 174° (S) 2,689 6.0 -8.2°
Sets 02:59:29 0° 174° (S) 3,634 6.6 -7.8°
